RH
45 48 45 38 40 40 40 39 39 39 37 36 37 38 37 38 39 39 32 31 33 34 32 31 33 33 33 38 41 42 41 40 40 41 41 40 50 54 53 58 61 57 54 54
53 47 33 40 42 42 43 42 42 45 44 43 41 38 36 36 36 38 36 33 31 35 34 33 32 32 31 32 38 39 38 39 40 43 45 41 48 53 52 55 65 64 59 55
68 37 42 43 43 44 42 42 44 47 47 43 45 40 32 33 33 34 36 34 33 34 33 33 32 31 30 30 32 38 38 39 41 44 48 48 51 51 50 54 61 62 57 54
78 59 59 56 47 47 46 42 45 48 50 47 48 43 28 28 31 32 31 31 32 32 31 31 32 32 29 28 27 36 39 40 44 46 47 48 50 51 51 59 62 63 56 52
78 70 68 70 55 59 46 46 50 56 63 60 51 54 24 29 30 30 29 28 29 29 29 28 30 34 30 28 26 29 35 40 44 45 44 46 53 56 57 59 59 57 56 58
78 75 77 70 72 75 72 70 73 75 71 69 50 54 27 28 27 27 26 26 26 27 28 28 29 35 34 31 29 30 33 38 40 41 40 43 46 50 54 59 62 61 61 71
87 84 79 72 73 77 81 85 98 98 94 62 54 61 31 29 28 25 25 25 26 26 26 27 27 31 35 33 33 34 37 37 38 40 42 46 50 55 59 63 63 64 63 74
96 97 87 75 73 76 82 81 87 85 73 59 58 47 32 30 30 29 27 25 24 24 26 26 26 28 35 37 39 38 41 41 41 43 46 51 59 64 67 67 65 69 70 62
98 97 78 76 74 78 83 89 83 90 86 88 56 37 37 33 32 32 28 26 25 25 24 25 26 23 30 36 40 43 44 45 47 51 57 64 66 72 68 70 71 73 66 56
85 92 78 78 81 80 77 79 98 97 96 87 48 44 38 33 30 30 30 28 27 28 30 26 24 25 30 34 40 45 48 51 55 57 62 67 74 75 75 77 75 71 67 57
88 93 89 84 88 84 88 87 92 92 87 71 53 38 31 30 30 31 30 29 29 29 27 28 29 30 33 37 41 43 47 52 57 60 64 70 74 76 78 74 72 68 59 55
95 96 97 92 86 83 82 78 89 91 84 78 70 43 31 33 33 34 34 32 31 30 28 30 32 34 35 38 45 46 50 53 57 64 71 73 76 77 72 73 71 65 57 55
97 97 97 85 90 87 85 76 79 72 73 69 70 37 34 35 37 36 34 33 32 31 31 33 35 38 39 41 47 54 56 58 64 73 73 72 73 72 73 74 70 62 62 66
90 97 98 92 90 95 86 76 78 76 89 61 62 35 44 41 41 41 38 35 36 36 36 37 38 40 41 43 49 56 61 66 69 70 69 69 68 68 71 76 68 65 63 59
88 95 97 96 94 94 95 98 95 87 77 80 47 46 42 42 42 42 41 41 40 40 41 41 43 43 45 48 52 60 64 68 70 69 68 69 69 72 71 68 69 65 61 64
81 82 81 87 78 78 92 86 92 93 93 83 57 48 38 45 45 46 46 47 47 45 46 49 50 48 49 53 59 63 66 69 69 68 69 68 69 69 69 67 64 65 64 62
78 70 80 82 72 86 91 75 77 84 90 90 79 43 48 37 42 43 44 50 50 49 50 51 52 50 50 54 60 67 71 71 70 70 68 66 68 71 66 64 67 61 60 59
65 71 79 69 76 91 54 59 72 76 75 89 81 47 53 41 46 50 52 48 50 53 57 60 58 57 56 58 62 68 70 69 68 69 67 68 71 73 74 70 61 57 62 64
60 65 75 80 76 62 49 49 53 67 64 69 78 57 60 62 64 54 44 47 50 57 60 61 60 61 62 62 63 65 64 68 70 69 68 72 78 75 68 62 60 63 65 64
58 62 78 72 73 72 36 35 39 46 60 55 64 59 60 74 66 48 55 52 54 56 57 59 58 59 59 61 62 65 68 71 70 68 70 76 80 74 67 61 64 65 64 60
72 76 79 72 77 61 24 25 35 64 49 44 58 55 72 66 66 55 57 57 57 58 61 64 62 60 60 64 66 69 72 73 72 73 76 85 80 72 64 64 65 62 59 52
66 76 75 79 85 78 19 29 44 35 34 38 43 44 62 59 59 62 66 62 62 61 66 65 62 59 60 63 66 66 71 74 74 72 84 76 74 68 66 63 62 59 52 44
66 53 59 69 61 37 20 29 29 32 40 53 64 59 68 66 58 62 66 70 63 63 67 72 64 58 59 62 65 69 69 69 74 81 84 82 74 69 64 61 60 57 47 43
58 57 66 70 51 43 28 39 41 38 42 69 72 72 73 64 59 59 62 67 68 64 59 66 70 63 63 66 71 73 71 74 77 85 92 79 70 68 64 63 61 50 46 40
60 69 57 65 51 42 35 31 36 39 31 30 51 61 57 62 54 53 58 66 73 68 65 66 63 63 64 70 72 73 77 77 81 92 89 73 74 69 68 65 55 48 41 33
66 62 72 59 48 52 35 38 41 40 34 32 40 43 42 51 60 60 58 67 75 72 68 68 65 68 69 74 74 72 79 78 88 95 80 73 74 80 72 67 57 50 40 34